#timestamp,LO_Frequency,Hit,StdDev 
1677546015.2,286046999.1,N
1677546035.0,286046997.4,P
1677546035.9,286046997.4,Y
1677546055.8,286046998.7,P
1677546075.6,286046998.2,P
1677546095.4,286046998.6,P
1677546115.3,286047000.5,N
1677546135.1,286046998.1,N
1677546155.8,286047000.4,N
1677546175.7,286047000.4,N
1677546195.5,286047000.4,N
1677546215.4,286046998.4,N
1677546235.2,286047001.2,N
1677546255.0,286046998.8,N
1677546255.9,286046998.8,N
1677546275.8,286046998.8,N
1677546295.6,286046999.5,N
1677546315.4,286046998.5,N
1677546335.3,286047000.0,N
1677546355.1,286046999.0,N
1677546375.9,286046998.3,N
1677546395.7,286046999.0,N
1677546415.5,286047000.8,N
1677546435.4,286047001.0,N
1677546455.2,286046999.8,N
1677546475.0,286047000.8,N
1677546476.0,286047000.8,N
1677546525.8,286047001.2,E
1677546535.7,286046999.4,N
1677546555.6,286046999.6,P
1677546575.4,286046998.4,P
1677546595.3,286046998.4,Y
1677546615.1,286046998.9,P
1677546616.0,286046998.9,P
1677546635.8,286046996.8,P
1677546655.7,286046997.2,N
1677546675.5,286046997.1,N
1677546695.3,286046999.1,N
1677546715.2,286047000.6,N
1677546735.0,286047000.5,N
1677546735.9,286047000.5,N
1677546755.8,286047000.9,N
1677546775.6,286047001.1,N
1677546795.4,286047001.0,N
1677546815.3,286047000.4,N
1677546835.1,286047000.1,N
1677546855.8,286047000.1,N
1677546875.7,286047002.6,N
1677546895.5,286046999.8,N
1677546915.4,286047000.4,N
1677546935.2,286047000.9,N
1677546955.0,286047000.4,N
1677546955.9,286047000.4,N
1677546975.8,286046999.9,N
1677546995.6,286047000.1,N
1677547015.5,286047000.4,N
1677547035.3,286046999.7,N
1677547055.1,286047002.1,N
1677547075.9,286047002.7,N
1677547095.7,286047002.4,N
1677547115.5,286047000.4,N
1677547135.4,286046999.8,N
1677547155.2,286047000.1,N
1677547175.1,286047002.5,N
1677547176.0,286047002.5,N
1677547195.8,286047001.4,N
1677547215.6,286047001.3,N
1677547235.5,286047004.0,Y
1677547255.3,286047001.7,P
1677547275.2,286047004.0,P
1677547295.9,286047004.4,P
1677547315.7,286047001.5,N
1677547335.6,286047001.8,N
1677547355.4,286047001.7,N
1677547375.2,286047001.4,N
1677547395.1,286047001.9,N
1677547396.0,286047001.9,N
1677547415.8,286047003.9,Y
1677547435.7,286047001.0,P
1677547455.5,286047002.6,P
1677547475.3,286047002.5,P
1677547495.2,286047002.0,Y
1677547515.0,286047000.9,P
1677547515.9,286047000.9,N
1677547535.8,286047002.7,P
1677547555.6,286046999.9,N
1677547575.4,286046997.3,N
1677547595.3,286046994.3,Y
1677547615.1,286046993.7,P
1677547635.8,286046995.3,N
1677547655.7,286046996.9,N
1677547675.5,286046998.7,N
1677547695.4,286047001.2,N
1677547715.2,286046999.0,N
1677547735.0,286046998.8,N
1677547735.9,286046998.8,N
1677547755.8,286046998.5,N
1677547775.6,286047001.1,N
1677547795.4,286047001.1,N
1677547815.3,286047001.0,N
1677547835.1,286047000.5,N
1677547855.9,286046998.3,N
1677547875.7,286046998.8,N
1677547895.5,286046998.7,N
1677547915.4,286047001.2,N
1677547935.2,286047000.1,N
1677547955.0,286046998.2,N
1677547955.9,286046998.2,N
1677547975.8,286047000.9,N
1677547995.6,286047000.7,N
1677548015.5,286046998.1,N
1677548035.3,286046998.5,N
1677548055.1,286047000.7,N
1677548075.9,286047000.7,N
1677548095.7,286047000.6,N
1677548115.5,286047000.0,N
1677548135.4,286047002.3,N
1677548155.2,286047001.0,N
1677548175.1,286047002.5,N
1677548176.0,286047002.5,N
1677548195.8,286046999.7,N
1677548215.6,286047001.5,N
1677548235.5,286047002.6,N
1677548255.3,286047001.6,N
1677548275.1,286046999.8,N
1677548295.9,286047000.1,N
1677548315.7,286046999.8,N
1677548335.6,286047002.6,N
1677548355.4,286046999.8,N
1677548375.2,286047002.4,N
1677548395.1,286047002.4,N
1677548396.0,286047002.4,N
1677548415.8,286047002.8,N
1677548435.6,286047002.2,N
1677548455.5,286047002.3,N
1677548475.3,286046999.8,N
1677548495.2,286047001.6,N
1677548515.9,286047001.9,N
1677548535.7,286047001.9,N
1677548555.6,286047003.5,N
1677548575.4,286047002.8,N
1677548595.2,286047002.6,N
1677548615.1,286047000.1,N
1677548616.0,286047000.1,N
1677548635.8,286047002.1,N
1677548655.7,286046999.9,N
1677548675.5,286047002.4,N
1677548695.3,286046999.9,N
1677548715.2,286047000.5,N
1677548735.0,286047002.8,N
1677548735.9,286047002.8,N
1677548755.7,286047000.3,N
1677548775.6,286047002.7,N
1677548795.4,286047002.8,N
1677548815.3,286047000.3,N
1677548835.1,286047002.3,N
1677548836.0,286047002.3,N
1677548855.8,286047002.0,N
1677548875.7,286047001.4,N
1677548895.5,286047001.4,N
1677548915.3,286047001.9,N
1677548935.2,286047002.6,N
1677548955.0,286047001.8,N
1677548955.9,286047001.8,N
1677548975.8,286047004.2,Y
1677548995.6,286047002.7,P
1677549015.4,286046999.8,N
1677549035.3,286046999.8,N
1677549055.1,286047000.0,N
1677549075.9,286047000.2,N
1677549095.7,286046999.9,N
1677549115.5,286046998.1,N
1677549135.4,286047001.2,N
1677549155.2,286046999.1,N
1677549175.1,286047001.1,N
1677549176.0,286047001.1,N
1677549195.8,286046998.6,N
1677549215.6,286046999.2,N
1677549235.5,286046996.7,N
1677549255.3,286047001.1,N
1677549275.1,286046998.5,N
1677549295.9,286046999.2,N
1677549315.7,286046998.0,N
1677549335.6,286046998.0,N
1677549355.4,286046997.0,N
1677549375.2,286046999.6,N
1677549395.1,286046999.9,N
1677549396.0,286046999.9,N
1677549415.8,286047000.0,N
1677549435.7,286047000.0,N
1677549455.5,286047000.1,N
1677549475.3,286047003.6,N
1677549495.2,286047001.5,N
1677549515.0,286046999.7,N
1677549515.9,286046999.7,N
1677549535.8,286047002.1,N
1677549555.6,286047002.3,N
1677549575.5,286046999.9,N
1677549595.3,286047000.5,N
